Location: ????????
(37.6846°N, 24.0673°E)
Time: 15:03:15
(UTC+00:00)

Cosmos 1867 - Pass Details

Date: 14 July 2020
Orbit: 778 x 798 km, 65.0° (Epoch: 03 August)

Event Time Altitude Azimuth Distance (km) Brightness Sun altitude
Exits shadow 02:07:16 15° 216° (SW) 2,031 5.1 -11.7°
Maximum altitude 02:11:50 76° 301° (WNW) 818 3.6 -11.0°
Drops below altitude 10° 02:17:17 10° 27° (NNE) 2,370 7.2 -10.2°
Sets 02:19:44 0° 29° (NNE) 3,305 8.2 -9.8°
